Wetbulb
56.12 51.58 50.41 53.29 52.22 55.07 54.93 55.00 54.82 57.62 60.26 58.13 58.40 59.81 60.71 62.40 63.95 63.29 62.97 63.33 63.93 64.70 66.75 67.47 68.54 69.21 69.65 70.81 70.40 69.92 70.40 72.23 72.49 72.25 71.13 71.78 71.60 72.33 72.65 72.67 75.22 73.66 73.57 74.02
51.41 48.75 53.76 55.50 52.46 50.30 49.50 48.78 51.20 57.04 58.78 55.83 59.40 57.96 60.34 62.03 62.70 62.17 64.21 63.99 64.37 65.11 65.92 66.97 67.86 68.77 68.73 69.37 70.58 70.00 71.20 71.72 71.66 71.48 71.63 71.75 72.25 71.76 71.18 70.48 69.06 72.78 74.83 74.93
47.70 50.58 54.31 51.73 48.87 48.43 47.00 44.65 48.10 50.71 57.20 58.05 58.67 55.85 55.42 58.34 60.35 63.50 64.57 66.04 66.08 65.68 65.71 66.33 67.10 67.29 68.00 68.50 69.86 70.54 72.33 71.75 71.90 71.06 72.06 72.32 71.69 71.30 69.37 68.25 69.15 70.75 71.32 74.64
48.39 52.35 51.36 48.52 47.94 47.55 41.62 51.08 51.20 50.82 46.99 45.79 53.86 48.67 53.65 55.96 58.09 59.80 61.68 65.42 66.14 66.38 67.07 67.07 66.97 66.17 66.97 69.55 71.19 70.73 72.66 71.75 72.20 72.64 71.95 71.34 69.76 68.45 70.07 70.30 69.01 70.27 71.10 71.05
48.18 49.76 48.80 47.98 49.25 50.62 47.47 52.12 51.20 50.89 46.36 43.44 47.72 50.51 51.11 56.19 54.48 57.40 60.07 63.24 66.63 67.19 67.24 67.11 67.07 66.78 67.43 70.74 71.55 70.97 72.83 72.42 72.27 73.28 72.83 72.37 71.05 71.03 70.55 69.31 69.26 70.03 71.48 72.07
49.48 52.76 49.60 48.56 50.90 50.43 52.02 49.95 50.14 48.21 44.56 40.19 45.64 49.18 47.81 51.87 54.75 58.47 61.41 63.02 63.98 66.98 67.58 67.72 68.06 67.31 67.60 70.67 72.09 71.25 72.33 71.51 72.03 71.91 73.00 73.74 71.87 70.09 69.31 68.07 66.30 67.98 72.06 73.32
49.03 49.44 50.34 51.13 46.53 51.26 50.72 46.71 40.22 40.69 39.80 42.24 47.77 48.17 48.08 56.01 58.81 59.40 58.68 58.85 63.18 66.80 67.10 66.93 66.93 66.67 66.89 69.66 71.12 71.44 71.27 71.99 72.81 71.89 72.87 73.50 73.95 71.44 69.88 68.79 69.87 70.02 71.87 72.62
47.39 42.37 48.30 51.27 49.17 46.41 48.23 47.14 40.00 36.58 37.83 41.11 47.88 44.35 49.36 56.91 58.21 57.57 60.26 60.75 62.83 62.26 67.52 67.34 67.38 67.20 67.25 69.04 70.23 72.19 70.88 72.08 74.00 73.62 73.70 73.91 73.89 73.98 72.85 71.46 71.56 72.08 72.32 72.56
45.82 47.57 53.05 54.01 52.05 50.05 47.80 43.75 47.17 41.50 45.32 42.06 47.61 49.45 53.01 56.67 56.44 61.21 62.62 65.02 65.21 65.91 67.11 67.56 67.68 67.73 67.61 67.67 69.56 70.99 72.15 72.15 73.36 74.12 74.92 75.00 75.05 74.44 74.57 73.20 72.71 71.93 71.89 73.69
48.75 44.68 51.92 51.79 53.05 53.20 49.27 55.41 43.50 42.65 38.08 37.28 45.20 46.81 48.09 53.14 56.89 61.15 62.17 64.67 65.94 67.35 67.15 67.86 67.45 67.40 67.77 68.00 69.17 71.49 72.61 73.09 73.76 73.71 74.24 75.79 75.60 75.64 74.94 74.22 74.26 74.08 73.47 72.22
50.27 47.54 49.26 51.34 50.53 48.94 48.26 46.28 44.45 43.22 43.59 39.30 39.92 46.04 54.69 56.00 58.54 60.47 63.15 65.34 66.28 65.70 65.85 64.77 67.59 68.86 67.56 68.75 70.08 71.42 72.61 72.94 73.52 74.54 74.18 74.37 75.73 76.24 75.49 75.42 75.61 75.71 73.62 73.38
51.78 47.95 44.16 47.51 51.68 53.01 48.48 44.89 45.66 40.30 40.93 41.75 42.61 47.58 56.45 56.64 61.87 63.89 64.71 65.70 66.47 65.19 64.91 63.87 65.84 67.44 69.08 66.69 64.34 65.35 72.47 73.35 74.31 74.63 74.92 74.97 75.20 75.37 75.86 75.24 74.87 75.84 74.29 74.06
50.86 46.64 39.89 43.47 47.32 51.22 48.38 48.83 51.60 46.88 44.12 41.43 40.19 45.39 56.60 57.94 58.38 59.29 65.08 65.21 62.71 63.03 63.72 62.07 64.83 63.91 66.81 66.23 66.68 65.44 66.18 73.29 74.69 74.87 74.44 74.79 75.05 75.17 74.74 75.61 75.04 75.28 75.54 75.24
55.13 44.89 42.70 39.31 44.27 47.89 47.51 49.75 48.89 45.85 40.86 41.42 43.92 47.31 51.79 56.14 57.96 61.71 62.31 66.04 65.22 63.71 62.22 63.72 62.15 64.55 66.70 67.26 64.23 67.06 66.13 69.12 74.57 74.35 74.05 73.70 74.76 74.82 74.96 75.46 75.77 75.28 75.67 75.27
50.68 44.79 45.76 48.78 50.38 50.53 49.52 49.65 49.58 45.19 45.04 42.29 44.94 44.86 52.00 54.07 55.36 60.67 61.86 64.20 65.14 66.28 63.70 65.56 63.63 63.14 63.83 63.58 64.26 64.64 67.38 70.69 74.55 73.69 73.91 73.79 72.14 73.36 75.09 74.20 75.63 75.06 76.02 75.73
51.02 46.14 47.97 46.56 51.02 50.60 48.95 50.74 50.69 50.28 50.05 47.49 46.15 45.46 50.31 51.21 60.43 60.33 61.00 62.48 64.16 64.75 68.66 68.26 64.56 64.58 63.38 62.54 60.76 63.87 70.05 72.76 72.33 70.07 68.84 68.40 69.46 69.10 66.53 73.39 74.80 74.97 74.70 75.44
48.61 46.35 45.59 42.87 49.31 49.39 45.51 49.48 50.31 48.27 48.94 46.69 43.97 47.19 52.02 53.15 59.77 59.65 61.38 62.32 64.02 66.00 67.95 68.39 69.73 68.14 68.45 70.30 73.34 72.44 68.35 66.63 66.87 66.64 67.43 67.75 68.46 67.80 66.30 66.94 67.07 68.68 69.92 71.45
47.92 47.19 46.72 43.62 45.72 39.19 48.68 53.14 53.20 50.32 51.28 52.76 54.75 57.90 59.29 58.66 61.53 61.94 62.70 63.32 63.23 63.76 62.17 62.71 64.79 69.57 70.68 70.81 72.60 72.30 69.31 67.90 66.40 65.84 65.85 65.23 64.66 64.86 66.76 65.37 64.76 65.64 68.12 68.66
52.28 48.54 44.60 42.25 41.57 46.90 50.89 52.15 51.74 49.15 52.77 57.34 56.67 57.90 58.97 60.12 59.24 60.21 62.86 63.97 62.55 63.47 63.21 63.78 66.36 67.93 71.29 66.73 69.18 70.85 69.24 67.81 66.70 67.33 65.45 66.55 65.65 64.83 64.43 64.94 62.65 61.82 64.21 65.94
51.69 50.51 46.87 44.03 41.15 40.26 48.96 54.15 55.84 53.78 47.60 56.93 56.61 55.56 55.93 56.00 50.04 54.03 61.32 62.75 64.11 62.37 63.50 65.79 66.73 65.78 65.81 65.59 67.49 66.50 67.18 66.22 65.78 66.21 65.74 65.59 64.68 64.26 67.38 67.28 63.20 63.23 65.43 67.81
48.39 47.93 45.68 45.18 43.21 47.06 54.03 55.43 55.51 44.45 47.81 56.30 56.68 55.55 55.08 52.77 53.02 58.91 61.15 61.55 64.27 63.37 65.06 65.20 66.71 66.69 64.30 66.07 63.80 64.17 63.55 67.35 69.32 73.02 72.38 69.79 68.52 69.50 70.56 69.88 70.12 70.19 70.95 72.26
50.12 48.15 47.11 46.82 44.11 43.40 56.80 55.55 50.64 53.48 54.88 56.27 56.69 56.43 55.46 55.18 56.47 56.88 58.61 60.16 60.71 60.88 62.45 62.43 63.93 65.72 65.39 67.50 62.84 63.24 63.62 66.00 64.35 64.99 67.53 70.76 71.41 71.15 70.24 69.69 68.68 68.74 68.63 68.72
48.37 50.87 48.44 49.87 50.13 55.78 55.83 55.00 55.98 56.48 55.34 56.04 55.84 56.74 56.64 56.11 55.91 56.99 56.53 56.78 57.90 58.05 59.03 59.34 58.74 64.37 64.11 65.88 64.37 62.81 64.63 65.63 65.33 63.23 62.39 61.87 69.86 71.62 69.64 69.45 68.99 67.57 67.83 67.13
53.86 56.47 51.00 51.04 52.44 55.56 56.74 56.94 58.03 58.51 57.48 57.78 57.78 56.79 56.45 54.59 56.04 56.11 56.42 57.06 57.76 58.37 58.48 59.54 59.16 59.80 61.93 62.82 62.45 61.57 61.37 65.04 62.17 60.01 61.20 61.33 65.35 70.23 71.57 71.17 70.26 69.58 68.41 66.63
53.14 53.48 52.73 52.38 53.40 55.69 58.12 58.49 58.65 59.09 59.32 59.09 58.54 57.71 56.39 56.82 56.28 56.36 56.20 56.77 57.86 58.62 58.43 58.69 58.50 58.72 59.11 62.19 62.28 61.97 64.19 63.88 62.05 62.18 62.74 64.49 67.57 67.16 66.21 67.81 68.66 68.51 68.40 67.42
53.65 52.42 50.74 50.28 55.14 56.20 55.64 57.63 59.25 58.64 57.74 57.42 56.71 57.11 58.03 57.27 55.88 56.27 56.03 57.20 57.28 57.35 58.23 57.96 57.39 57.57 58.89 59.57 61.72 64.15 67.32 65.34 62.22 61.33 64.61 64.69 64.25 62.27 61.19 61.74 61.82 58.02 58.12 56.70
MSLP
1000.75 1001.25 1001.03 1000.42 1000.23 1000.22 1001.04 1002.44 1002.91 1002.15 1000.70 1001.93 1002.96 1004.83 1007.46 1006.37 1006.05 1005.53 1005.54 1005.94 1006.11 1006.32 1006.64 1007.08 1007.32 1007.62 1008.21 1009.02 1009.84 1010.60 1011.58 1012.62 1013.56 1014.48 1015.20 1015.70 1016.12 1016.03 1016.05 1016.02 1015.98 1016.49 1016.46 1016.94
1001.12 1000.76 999.86 999.39 999.40 999.84 1000.23 1000.61 1000.98 1001.10 1000.17 999.89 1002.42 1005.47 1005.93 1005.92 1004.69 1004.24 1004.39 1004.58 1004.79 1005.20 1005.53 1005.96 1006.62 1006.97 1007.53 1008.47 1009.30 1010.20 1011.08 1012.21 1013.06 1013.82 1014.59 1015.18 1015.47 1015.92 1016.27 1016.57 1016.99 1016.79 1016.55 1016.71
1000.74 999.72 999.01 998.87 999.08 999.61 999.78 999.96 999.66 999.63 999.62 1000.03 1002.51 1005.52 1006.68 1005.05 1002.22 1002.53 1003.03 1002.91 1003.41 1003.69 1004.31 1004.95 1005.64 1006.19 1006.87 1007.86 1008.87 1009.79 1010.66 1011.64 1012.55 1013.38 1014.33 1014.98 1015.37 1015.90 1016.27 1016.64 1016.69 1016.87 1017.04 1016.71
999.89 998.66 998.60 998.63 998.98 999.10 999.41 999.01 999.04 999.25 999.89 1000.68 1000.76 1005.07 1005.86 1004.57 1003.08 1001.98 1001.51 1001.96 1002.01 1002.36 1003.00 1003.79 1004.58 1005.40 1006.14 1007.21 1008.17 1009.29 1010.21 1011.16 1012.03 1012.93 1013.75 1014.36 1014.96 1015.61 1015.53 1015.88 1016.30 1016.10 1016.31 1017.03
999.77 998.84 998.44 998.64 998.69 998.68 999.01 998.76 999.18 999.54 1000.13 1000.98 1001.00 1003.59 1004.18 1003.72 1003.21 1001.42 1000.31 1000.09 1000.54 1001.05 1001.68 1002.59 1003.46 1004.31 1005.22 1006.39 1007.49 1008.62 1009.66 1010.57 1011.40 1012.32 1012.95 1013.55 1014.24 1014.62 1015.10 1015.98 1016.14 1016.33 1016.69 1016.90
999.46 998.53 998.33 998.31 998.45 998.59 998.76 999.02 999.33 999.71 1000.63 1002.14 1001.41 1002.38 1003.76 1003.28 1001.97 1000.86 1000.04 999.65 999.36 1000.19 1000.92 1001.68 1002.53 1003.57 1004.58 1005.73 1006.97 1008.08 1009.10 1010.03 1010.69 1011.49 1012.30 1012.88 1013.63 1014.28 1014.95 1015.70 1015.89 1016.23 1016.12 1015.79
999.26 998.50 997.98 998.04 998.38 998.50 998.90 999.42 1000.44 1001.16 1001.89 1002.59 1001.56 1001.72 1001.31 1000.98 1000.34 1000.10 999.31 998.82 999.04 999.51 1000.19 1001.11 1002.14 1002.96 1003.93 1005.05 1006.41 1007.71 1008.81 1009.82 1010.44 1011.11 1011.81 1012.43 1013.04 1013.87 1014.34 1014.53 1014.68 1015.21 1015.18 1015.11
999.33 998.56 998.03 997.96 998.14 998.64 999.08 999.80 1001.10 1001.98 1002.41 1001.83 1001.18 1001.07 1000.50 999.52 999.11 998.86 998.67 998.72 998.84 999.03 999.62 1000.39 1001.15 1002.24 1003.47 1004.78 1006.05 1007.31 1008.34 1009.29 1010.01 1010.84 1011.34 1011.81 1012.55 1012.98 1013.69 1013.85 1014.06 1014.09 1014.56 1015.37
1000.03 999.29 998.15 997.86 997.91 998.59 998.99 999.80 1000.15 1001.43 1001.66 1002.36 1001.73 1001.20 1000.14 999.85 999.39 999.41 999.16 999.35 999.27 999.10 999.85 1000.11 1001.12 1002.10 1003.28 1004.51 1005.75 1007.11 1008.37 1009.09 1009.55 1009.97 1010.86 1011.31 1011.82 1012.35 1012.61 1012.93 1013.29 1013.48 1014.45 1015.04
1000.37 1000.27 999.00 998.40 998.05 998.29 998.97 999.48 1000.34 1001.74 1003.16 1003.09 1003.27 1001.95 1001.41 1000.62 1000.40 1000.13 1000.14 1000.22 1000.21 1000.26 999.31 1000.71 1002.77 1003.57 1003.49 1004.55 1005.50 1006.67 1007.66 1008.37 1008.97 1009.44 1010.03 1010.60 1011.10 1011.65 1012.09 1012.45 1012.61 1012.70 1013.15 1014.26
1000.81 1001.08 1000.43 999.40 999.02 998.87 999.44 999.93 1000.90 1001.96 1003.01 1003.57 1003.51 1002.81 1001.29 1001.02 1000.97 1001.14 1001.29 1001.42 1001.56 1003.03 1003.55 1003.80 1004.69 1006.03 1007.62 1005.80 1005.36 1006.08 1007.08 1007.61 1008.38 1008.83 1009.30 1010.07 1010.48 1011.03 1011.63 1012.02 1012.15 1012.09 1012.35 1012.96
1001.76 1002.03 1002.06 1000.88 999.66 999.35 999.47 1000.06 1000.92 1002.76 1003.32 1003.12 1003.00 1002.88 1002.19 1002.08 1001.67 1001.30 1001.31 1001.82 1002.35 1003.81 1004.99 1004.73 1004.21 1005.99 1007.84 1009.61 1007.20 1006.79 1006.84 1007.07 1007.24 1007.83 1008.44 1009.25 1009.92 1010.47 1010.98 1011.39 1011.71 1011.91 1012.04 1012.47
1002.54 1002.85 1003.35 1002.17 1000.80 1000.40 1000.17 1000.33 1000.85 1001.70 1002.57 1003.35 1003.53 1002.93 1002.41 1002.08 1001.38 1002.19 1001.47 1001.84 1002.41 1004.12 1005.31 1005.67 1005.55 1007.04 1008.32 1008.52 1005.94 1005.73 1005.61 1006.22 1006.54 1007.07 1007.72 1008.42 1009.01 1009.72 1010.24 1010.67 1011.06 1011.34 1011.52 1011.99
1002.54 1003.27 1003.98 1003.64 1002.92 1002.00 1001.34 1001.05 1001.23 1001.97 1003.06 1003.16 1003.15 1002.73 1002.59 1002.75 1002.22 1001.55 1001.57 1002.08 1002.46 1004.10 1005.08 1006.55 1006.68 1006.89 1006.86 1005.98 1004.17 1003.26 1005.35 1005.34 1006.41 1006.58 1007.08 1007.58 1008.18 1008.60 1009.21 1009.83 1010.34 1010.63 1010.80 1011.19
1002.72 1003.48 1003.61 1003.43 1002.80 1002.22 1001.78 1001.47 1001.42 1001.93 1002.32 1002.77 1002.23 1002.25 1001.91 1001.75 1001.85 1001.87 1001.59 1001.66 1002.27 1003.22 1005.71 1005.68 1006.57 1006.90 1006.99 1006.20 1004.46 1003.80 1004.30 1004.83 1005.34 1006.29 1006.51 1007.20 1007.82 1008.09 1008.08 1008.44 1009.22 1009.54 1009.99 1010.26
1002.71 1003.47 1003.66 1003.82 1003.26 1002.74 1002.13 1001.46 1001.13 1001.12 1001.31 1001.48 1001.58 1001.66 1001.01 1000.46 1001.24 1001.67 1001.76 1001.85 1002.34 1002.69 1003.44 1004.76 1005.87 1006.27 1005.53 1004.98 1004.77 1005.16 1004.28 1004.30 1005.31 1006.18 1006.74 1006.80 1007.20 1007.70 1008.86 1008.83 1008.57 1008.99 1009.55 1009.99
1003.23 1003.61 1004.26 1004.40 1003.87 1003.20 1002.57 1001.36 1000.92 1000.54 1000.66 1001.22 1001.81 1001.62 1001.34 1002.11 1004.03 1004.17 1002.96 1002.39 1003.39 1003.78 1004.11 1003.47 1002.50 1004.26 1005.22 1005.55 1005.51 1005.89 1006.34 1005.67 1005.60 1006.03 1006.35 1006.19 1006.41 1006.76 1006.56 1008.28 1009.46 1009.06 1009.48 1009.71
1002.97 1003.65 1004.15 1004.72 1004.38 1003.77 1002.16 1000.60 1000.09 1000.21 1000.81 1001.12 1001.62 1002.05 1002.57 1003.68 1004.52 1004.18 1004.28 1004.66 1004.14 1003.70 1003.96 1003.70 1003.84 1003.81 1004.05 1004.22 1005.05 1005.83 1006.44 1006.89 1006.83 1006.89 1007.35 1007.61 1007.83 1008.06 1008.34 1008.58 1009.43 1009.44 1009.10 1009.17
1002.05 1003.10 1004.20 1004.67 1004.68 1003.64 1001.81 1000.75 1000.54 1000.65 1002.12 1002.14 1002.52 1002.78 1003.24 1003.72 1003.99 1005.39 1005.62 1005.38 1005.59 1005.34 1005.07 1005.83 1007.14 1005.51 1004.22 1003.88 1004.18 1004.93 1006.46 1006.95 1007.46 1006.99 1006.78 1007.43 1008.16 1008.83 1008.79 1009.11 1009.26 1008.80 1008.86 1008.87
1001.82 1002.61 1004.24 1004.83 1004.85 1003.91 1001.77 1000.94 1000.58 1000.87 1002.50 1002.92 1003.16 1003.68 1004.13 1004.30 1005.35 1006.24 1006.47 1006.16 1006.25 1006.09 1006.08 1007.41 1005.87 1006.25 1005.63 1006.73 1007.60 1006.71 1006.65 1007.51 1007.58 1007.33 1007.55 1007.14 1007.34 1007.75 1007.79 1008.10 1008.30 1008.53 1008.57 1008.39
1002.57 1003.21 1004.02 1004.62 1004.40 1003.30 1002.13 1001.39 1001.17 1002.17 1004.17 1003.78 1004.02 1004.41 1004.70 1005.36 1005.87 1006.08 1006.05 1006.13 1006.26 1006.17 1006.14 1006.18 1006.28 1006.14 1005.44 1006.08 1006.81 1008.58 1008.07 1008.91 1007.64 1007.59 1007.44 1007.56 1007.24 1006.79 1007.44 1007.86 1007.67 1008.03 1008.03 1007.89
1002.53 1002.99 1003.67 1004.05 1003.88 1003.28 1002.18 1001.86 1002.39 1003.43 1003.70 1004.07 1004.56 1005.00 1005.32 1005.43 1005.56 1005.71 1006.01 1006.17 1006.35 1006.55 1006.52 1006.45 1006.49 1006.01 1005.31 1005.68 1007.35 1007.73 1009.11 1008.79 1008.84 1008.61 1008.54 1008.01 1007.74 1007.12 1006.85 1006.98 1007.02 1007.03 1007.23 1007.56
1001.97 1001.97 1002.77 1003.20 1003.22 1002.91 1002.75 1002.89 1002.78 1003.05 1003.75 1004.38 1004.84 1005.29 1005.56 1005.78 1006.01 1005.95 1006.07 1006.22 1006.33 1006.38 1006.47 1006.49 1006.46 1006.56 1006.53 1006.88 1007.00 1007.44 1008.14 1007.69 1007.45 1007.62 1007.81 1008.10 1008.31 1007.20 1006.64 1006.40 1006.88 1007.01 1007.15 1007.25
1002.20 1001.67 1002.34 1002.62 1002.40 1002.57 1002.64 1002.74 1003.06 1003.39 1004.00 1004.36 1004.74 1005.19 1005.57 1006.05 1006.15 1006.34 1006.24 1006.16 1005.97 1005.87 1006.24 1006.81 1007.13 1006.96 1006.72 1006.81 1007.23 1006.95 1006.70 1006.90 1007.01 1007.24 1006.98 1006.73 1007.13 1006.57 1005.92 1006.15 1006.02 1006.63 1006.76 1006.76
1002.49 1002.38 1002.52 1002.69 1002.42 1002.29 1002.45 1002.94 1003.31 1003.60 1003.95 1004.41 1004.83 1005.27 1005.64 1006.13 1006.55 1006.71 1006.77 1006.63 1006.38 1006.44 1006.34 1006.34 1006.71 1006.99 1007.05 1006.97 1006.82 1006.28 1006.66 1006.96 1007.61 1007.73 1007.23 1006.94 1007.03 1006.03 1005.63 1005.54 1005.74 1006.20 1005.94 1005.62
1002.55 1002.34 1002.48 1002.70 1002.65 1002.60 1002.95 1003.00 1003.16 1003.75 1004.16 1004.44 1004.81 1005.30 1005.75 1006.20 1006.62 1006.88 1007.08 1006.98 1007.03 1007.11 1007.13 1007.18 1007.31 1007.42 1007.23 1006.74 1006.42 1006.23 1005.76 1005.93 1006.24 1006.31 1006.28 1005.88 1005.55 1005.28 1005.24 1005.22 1005.54 1005.36 1005.09 1004.82
Wind_Speed
10 3 8 13 7 5 8 15 11 12 13 20 13 18 16 23 9 14 19 20 21 22 23 20 18 17 15 14 17 12 12 16 11 9 5 2 3 3 3 2 4 8 7 7
7 9 13 9 4 8 8 9 8 8 15 3 16 15 21 15 8 9 14 21 22 21 20 21 21 18 14 16 19 13 15 15 12 9 7 3 4 3 3 3 5 2 6 7
7 13 10 6 8 8 9 6 8 4 1 3 19 9 6 9 6 12 9 20 20 22 21 19 22 15 14 16 18 14 16 17 13 11 7 3 4 3 2 2 1 1 5 5
8 10 4 6 6 6 6 8 9 9 6 4 5 4 6 8 10 4 5 23 20 20 19 21 20 15 17 14 17 16 17 17 13 13 10 8 5 5 4 4 3 1 6 9
15 8 2 7 5 7 6 10 7 8 7 5 11 7 3 2 8 11 9 12 22 22 22 23 20 20 17 17 18 17 16 17 15 13 14 9 6 4 3 4 6 6 9 13
12 8 2 5 7 7 10 10 8 9 2 6 10 8 5 5 10 4 7 7 10 18 20 22 20 20 15 17 17 17 15 16 15 12 9 9 9 8 5 4 5 5 6 6
14 11 7 4 4 8 8 2 5 8 4 5 4 7 10 15 11 10 9 7 10 17 17 18 20 20 17 20 19 17 17 15 14 13 10 9 7 12 12 9 5 6 5 4
8 1 6 6 1 3 8 3 4 4 3 7 8 7 3 5 9 2 6 3 3 9 18 19 21 20 19 19 19 18 18 16 14 14 12 10 9 5 8 11 7 7 6 2
6 5 3 5 1 3 7 6 6 2 5 7 4 2 6 11 7 5 8 7 6 8 15 19 19 18 18 13 18 16 18 16 15 13 13 11 9 8 7 8 9 8 6 8
8 7 7 5 5 7 6 2 9 6 3 4 3 5 3 6 7 8 8 8 8 10 14 13 9 3 15 10 14 15 18 19 18 16 13 11 12 10 7 6 8 7 7 12
8 7 12 7 5 4 2 6 5 2 3 3 4 3 1 5 8 8 7 6 8 19 19 16 14 18 20 3 15 15 16 17 16 15 14 12 10 10 8 7 7 7 5 10
6 3 6 9 6 6 3 2 1 6 9 3 5 6 3 7 10 6 7 5 8 8 9 13 14 20 22 19 7 6 7 16 17 16 14 14 9 7 8 9 8 6 6 9
6 4 5 12 8 9 4 4 5 6 5 5 4 5 6 8 7 14 7 4 1 12 10 12 20 24 23 16 8 9 7 12 16 16 15 13 13 12 11 11 9 7 7 8
5 1 6 7 9 5 9 10 6 5 4 6 1 2 2 9 13 7 6 7 4 15 13 13 12 16 24 30 16 13 10 4 13 15 16 14 14 13 11 11 13 11 10 9
3 3 5 8 9 8 9 10 8 5 8 3 10 5 8 9 10 9 8 6 6 6 18 15 17 14 17 13 9 12 5 5 18 15 12 9 10 4 8 11 13 14 11 12
2 5 4 5 8 9 6 9 10 9 8 7 6 7 7 5 9 7 7 8 8 7 10 12 12 12 9 8 8 7 3 6 14 13 12 12 9 9 1 5 3 6 7 7
5 3 2 5 7 9 8 10 7 3 7 5 6 6 7 11 19 13 8 3 14 12 11 3 11 12 11 6 5 5 3 5 10 11 7 6 3 7 7 8 0 7 5 5
7 3 2 4 4 6 11 9 7 4 5 7 9 14 15 12 14 17 14 10 8 11 16 15 13 6 7 8 7 7 6 4 4 2 3 3 1 3 5 7 7 6 6 6
10 4 1 3 2 8 11 3 6 4 7 12 13 14 15 9 12 10 7 6 4 3 9 6 10 11 7 9 10 9 7 4 2 3 4 6 9 9 8 7 9 6 4 3
6 6 5 1 2 4 4 4 7 5 4 7 10 10 11 12 8 4 2 3 4 8 7 5 8 7 15 18 20 11 4 6 6 4 7 6 7 5 7 7 7 5 5 6
3 2 6 3 4 6 4 6 5 2 4 7 9 7 8 6 1 4 2 2 3 6 4 4 3 2 3 7 12 15 21 15 4 3 2 5 6 7 7 7 6 7 6 4
6 6 4 3 3 3 5 4 4 5 6 8 8 9 8 8 8 7 6 5 5 6 7 5 4 2 4 8 8 5 3 8 6 12 12 5 6 5 4 5 3 2 3 4
1 6 6 7 6 3 6 6 6 6 4 6 8 7 7 7 7 8 7 6 6 6 5 5 4 6 5 10 14 14 17 8 8 8 1 9 15 7 6 4 5 3 4 4
10 7 2 3 1 6 6 4 5 9 8 7 7 4 5 5 7 8 8 8 8 7 6 6 6 7 1 7 9 16 13 6 2 6 11 17 15 8 6 5 4 5 5 5
4 4 1 1 1 2 2 8 7 7 8 8 7 4 5 7 6 6 7 8 7 7 7 7 7 6 5 2 10 11 8 8 12 14 14 15 13 7 6 6 6 7 7 8
3 3 2 4 2 5 4 5 7 7 5 4 4 6 6 6 5 5 5 4 5 7 7 8 8 8 8 9 11 7 12 14 12 12 11 7 7 5 5 5 6 9 13 13
Wind_Direction
275 276 250 254 267 263 205 143 170 231 259 213 213 71 47 12 9 175 175 182 186 191 195 197 198 193 186 174 164 164 146 158 149 157 158 166 195 201 185 197 146 159 166 183
294 258 259 268 307 8 351 307 218 207 256 120 97 101 170 169 183 192 203 186 189 188 193 192 196 191 178 163 169 166 152 159 161 162 166 159 161 102 120 55 358 304 184 177
239 258 285 354 13 335 287 278 307 245 289 34 116 121 279 200 216 157 210 197 187 188 191 192 185 180 175 164 165 162 154 163 163 162 155 129 90 78 122 93 74 66 343 245
254 269 334 355 298 275 284 328 339 339 26 227 159 106 241 280 294 295 216 189 190 184 186 183 179 175 174 164 161 160 156 163 162 162 171 171 168 174 199 152 193 39 301 282
266 318 42 3 298 5 282 289 302 300 289 333 303 96 292 329 265 269 275 181 187 185 183 178 177 176 171 158 160 165 156 163 166 163 171 174 170 160 170 117 173 180 237 245
270 279 186 205 314 303 280 289 280 258 185 18 270 117 279 202 227 272 269 270 183 176 180 174 174 170 166 161 158 163 155 168 169 172 169 169 171 155 152 193 178 199 210 190
259 240 242 141 274 304 337 320 326 1 2 182 151 83 218 209 236 245 202 176 203 176 172 166 172 172 173 162 163 165 164 168 173 177 177 186 197 159 180 188 195 189 199 187
1 216 141 184 129 11 305 38 130 321 321 254 170 174 275 149 185 330 114 31 67 170 172 169 172 169 172 162 166 164 169 169 170 175 188 187 189 194 178 189 191 200 197 167
3 338 163 127 198 80 304 13 256 324 312 74 79 23 45 159 208 95 55 40 356 312 185 170 168 162 167 154 164 160 169 176 180 176 180 191 196 192 201 187 195 198 152 162
308 352 342 222 207 226 198 269 358 0 7 339 20 44 166 71 72 81 54 15 322 322 175 155 117 85 156 140 154 152 169 175 182 188 193 185 191 195 198 203 212 207 170 180
2 32 302 17 352 128 322 2 354 90 114 201 117 285 109 96 79 87 65 359 7 27 58 90 72 44 11 344 162 160 172 179 181 181 188 201 195 191 188 207 215 215 174 173
15 293 328 295 274 63 58 327 0 114 299 282 140 252 95 31 51 104 101 46 24 88 86 99 81 37 351 307 36 56 186 177 181 185 177 187 186 185 188 207 220 214 195 172
345 344 355 340 357 9 340 54 14 5 35 305 55 259 47 88 106 261 124 145 81 127 116 118 131 164 182 276 205 199 160 197 186 177 179 180 187 185 193 193 205 210 188 175
106 242 197 221 251 316 344 344 6 51 19 290 162 333 139 164 191 202 153 175 151 122 144 141 162 171 186 206 221 207 188 152 203 183 183 183 181 184 192 189 196 203 196 184
156 246 287 315 326 322 309 305 306 308 261 269 286 302 225 220 189 208 171 146 110 116 142 163 172 201 205 229 231 231 214 255 190 192 165 135 84 85 201 185 195 200 187 196
299 280 322 312 309 325 319 321 315 276 265 251 251 292 313 281 152 152 174 150 158 135 108 127 170 188 210 224 232 257 299 181 138 136 138 135 126 74 233 360 89 181 188 177
298 274 353 290 308 324 325 266 275 46 44 45 11 265 30 31 64 32 317 140 42 46 28 35 165 164 188 194 133 137 133 82 130 141 157 115 128 172 180 115 304 127 141 123
252 259 185 243 333 285 246 270 255 130 24 9 54 40 28 74 74 61 53 41 57 56 6 319 350 291 162 146 135 125 111 84 76 117 129 98 147 172 158 150 182 195 181 164
208 198 197 137 236 274 295 311 39 66 54 39 48 36 29 31 65 64 40 73 86 76 241 351 310 323 201 152 152 151 137 154 244 227 200 181 186 195 184 193 208 221 187 172
113 88 111 314 212 274 270 96 56 44 59 25 59 42 34 27 46 322 124 148 142 185 214 236 53 41 56 50 348 20 80 170 225 207 242 191 185 196 177 188 196 204 208 206
157 171 175 249 232 256 349 28 31 74 201 50 57 57 42 41 129 212 307 346 211 191 228 27 156 172 258 113 12 343 358 318 286 234 200 228 216 196 208 207 186 193 190 199
192 162 188 180 218 282 345 19 70 186 63 64 46 44 31 14 4 0 13 308 308 298 307 348 44 194 225 120 165 193 102 271 16 14 354 304 247 218 201 199 232 203 204 232
185 157 188 145 187 126 45 62 51 94 113 84 76 44 35 9 350 349 341 353 344 356 1 13 48 195 237 190 192 183 219 188 162 136 228 313 283 252 236 195 218 233 224 234
350 27 103 78 154 94 42 357 35 58 76 66 62 47 27 17 14 5 346 337 338 343 355 26 46 3 262 217 195 203 208 194 205 214 212 232 253 237 219 227 203 220 228 235
221 11 274 311 33 42 47 88 70 47 40 32 21 26 37 49 16 349 332 321 335 357 354 1 7 7 356 262 232 225 206 181 201 224 229 228 235 233 231 228 221 226 233 214
293 266 171 220 80 113 125 104 76 62 40 352 1 31 26 33 342 302 302 324 360 1 5 12 4 2 340 332 329 256 215 191 207 207 229 225 231 232 225 220 255 249 237 253